Location: McCloud Nature Park
(39.8272°N, 86.6824°W)
Time: 05:13:37
(UTC-06:00)

Amateur Radio Satellites - All Passes

Search period start: 04 March 2015 04:43
Search period end: 05 March 2015 04:43
Location: McCloud Nature Park, 39.8272°N, 86.6824°W

Satellite Date Start Highest point End Downlink Frequencies (MHz)
Time Altitude Azimuth
JAS-2 04 Mar 04:53:17 05:00:40 62° 288° (WNW) 05:08:22 435.910
RS-15 04 Mar 05:05:20 05:13:55 24° 24° (NNE) 05:23:02 29.354- 29.394
CUBESAT XI-V 04 Mar 05:08:04 05:12:33 47° 73° (ENE) 05:17:06 437.345
AO-7 04 Mar 05:13:38 05:21:23 44° 296° (WNW) 05:29:00 29.400- 29.500
PRISM 04 Mar 05:13:45 05:17:48 57° 74° (ENE) 05:21:55 437.425
YUBILEINY 04 Mar 05:18:52 05:22:44 13° 283° (WNW) 05:25:53 435.215
Cubesat XI-IV 04 Mar 05:36:45 05:41:44 39° 97° (E) 05:46:44 437.490
CUTE-I 04 Mar 05:45:10 05:50:18 46° 98° (E) 05:55:26 437.470
STRAND 1 04 Mar 05:50:40 05:55:48 81° 77° (ENE) 06:01:00 437.568
PCSat 04 Mar 05:52:41 05:57:54 48° 247° (WSW) 06:03:03 145.827
JAS-2 04 Mar 06:41:29 06:44:35 13° 304° (NW) 06:47:16 435.910
AIST 1 04 Mar 06:46:45 06:51:06 80° 277° (W) 06:55:31
CUBESAT XI-V 04 Mar 06:47:11 06:50:19 17° 270° (W) 06:53:17 437.345
PRISM 04 Mar 06:52:27 06:53:46 11° 271° (W) 06:54:50 437.425
ISS 04 Mar 07:15:31 07:18:14 25° 134° (SE) 07:20:59 145.825
Cubesat XI-IV 04 Mar 07:17:12 07:21:41 27° 293° (WNW) 07:26:02 437.490
RS-15 04 Mar 07:17:51 07:29:12 66° 52° (NE) 07:41:05 29.354- 29.394
BRITE-PL 04 Mar 07:20:44 07:23:30 17° 89° (E) 07:26:22 437.365/2234.400
CUTE-I 04 Mar 07:25:56 07:30:07 23° 295° (WNW) 07:34:09 437.470
GONETS M04 04 Mar 07:31:13 07:38:52 34° 70° (ENE) 07:46:42
STRAND 1 04 Mar 07:34:12 07:35:45 11° 273° (W) 07:36:57 437.568
DOVE 4 04 Mar 07:44:52 07:46:37 13° 89° (E) 07:48:34 437.250
SEEDS 04 Mar 08:00:26 08:03:49 23° 94° (E) 08:07:16 437.485
CANX-2 04 Mar 08:05:58 08:09:53 35° 97° (E) 08:13:50 2200.000
TIGRISAT 04 Mar 08:22:18 08:24:05 13° 65° (ENE) 08:26:03 435.000
CUTE 1.7 + AOD 2 04 Mar 08:24:09 08:28:19 53° 99° (E) 08:32:30 437.475
DELFI C3 04 Mar 08:26:21 08:27:25 11° 89° (E) 08:28:44 145.870
O/OREOS (USA 219) 04 Mar 08:34:13 08:38:45 74° 110° (ESE) 08:43:21 437.305
HO-68 04 Mar 08:35:24 08:42:35 69° 103° (ESE) 08:49:45 435.675
ANTELSAT 04 Mar 08:35:37 08:38:32 18° 68° (ENE) 08:41:33 437.575/2403.000
POPSAT HIP 1 04 Mar 08:38:42 08:39:07 10° 64° (ENE) 08:39:47 437.405
POLYITAN 1 04 Mar 08:38:45 08:39:29 10° 64° (ENE) 08:40:27 437.675
UWE-3 04 Mar 08:45:05 08:47:18 14° 91° (E) 08:49:42 435.000/436.395/437.385
ISS 04 Mar 08:51:36 08:54:35 34° 330° (NNW) 08:57:35 145.825
SO-50 04 Mar 08:53:33 08:57:52 29° 47° (NE) 09:02:12 436.795
GOMX 1 04 Mar 08:53:59 08:58:18 65° 285° (WNW) 09:02:25 467.674
BRITE-PL 04 Mar 08:58:10 09:02:23 39° 289° (WNW) 09:06:19 437.365/2234.400
NANOSAT C BR1 04 Mar 08:58:40 09:01:26 18° 67° (ENE) 09:04:21 145.865
AAUSAT CUBESAT 2 04 Mar 09:01:33 09:05:46 86° 101° (ESE) 09:09:59 437.432
COMPASS 1 04 Mar 09:05:32 09:09:45 74° 284° (WNW) 09:13:56 437.405
Oscar 11 04 Mar 09:06:37 09:10:46 44° 98° (E) 09:14:55 145.826/435.025
CINEMA 3 04 Mar 09:15:44 09:19:55 76° 102° (ESE) 09:24:03 145.822/145.860
DOVE 4 04 Mar 09:20:44 09:24:50 47° 287° (WNW) 09:28:48 437.250
CUBEBUG 2 04 Mar 09:24:49 09:28:53 51° 99° (E) 09:32:57 437.445
50 SAT 04 Mar 09:27:08 09:28:24 11° 89° (E) 09:29:53 437.505
GONETS M04 04 Mar 09:27:41 09:36:06 52° 269° (W) 09:44:27
QB50P1 04 Mar 09:30:38 09:34:36 38° 72° (ENE) 09:38:36 145.935-145.965
RS-15 04 Mar 09:30:56 09:41:11 37° 252° (WSW) 09:51:29 29.354- 29.394
UNISAT 6 04 Mar 09:31:47 09:36:11 75° 76° (ENE) 09:40:31 437.425
BUGSAT 1 04 Mar 09:32:06 09:35:48 30° 70° (ENE) 09:39:34 437.445
DX 1 04 Mar 09:33:58 09:38:04 39° 98° (E) 09:42:10 434.975-435.025
QB50P2 04 Mar 09:35:00 09:39:03 44° 73° (ENE) 09:43:09 145.880/145.840
SEEDS 04 Mar 09:36:00 09:39:39 28° 289° (WNW) 09:43:13 437.485
CANX-2 04 Mar 09:42:33 09:45:38 19° 292° (WNW) 09:48:35 2200.000
AISAT 04 Mar 09:45:47 09:49:12 22° 94° (E) 09:52:42 437.250
HUMSAT D 04 Mar 09:46:31 09:50:09 30° 96° (E) 09:53:50 437.325/437.525
DUCHIFAT 1 04 Mar 09:48:20 09:52:33 61° 75° (ENE) 09:56:46 145.980
VELOX 1 04 Mar 09:54:13 09:57:57 26° 95° (E) 10:01:43 145.980
FUNcube-1 04 Mar 09:54:53 09:59:03 77° 102° (ESE) 10:03:13 145.935
TIGRISAT 04 Mar 09:56:05 10:00:27 60° 260° (W) 10:04:44 435.000
ZACube-1 04 Mar 09:56:47 10:00:58 82° 101° (ESE) 10:05:09 437.345
CUSAT 1 04 Mar 09:58:40 10:00:45 22° 75° (ENE) 10:02:58 437.405
DELFI C3 04 Mar 09:59:02 10:03:02 54° 285° (WNW) 10:07:02 145.870
UKube-1 04 Mar 10:01:06 10:05:28 78° 104° (ESE) 10:09:48 .
CUTE 1.7 + AOD 2 04 Mar 10:01:40 10:03:51 14° 294° (WNW) 10:05:53 437.475
POPSAT HIP 1 04 Mar 10:10:12 10:14:30 74° 258° (WSW) 10:18:47 437.405
POLYITAN 1 04 Mar 10:10:37 10:14:54 72° 258° (WSW) 10:19:11 437.675
ANTELSAT 04 Mar 10:10:58 10:15:06 39° 262° (W) 10:19:10 437.575/2403.000
ESTCUBE 1 04 Mar 10:16:33 10:20:08 23° 93° (E) 10:23:48 437.505/2401.250
O/OREOS (USA 219) 04 Mar 10:16:42 10:18:49 13° 309° (NW) 10:20:45 437.305
UWE-3 04 Mar 10:20:12 10:24:08 42° 287° (WNW) 10:28:05 435.000/436.395/437.385
HO-68 04 Mar 10:24:13 10:29:46 24° 300° (WNW) 10:35:05 435.675
ISS 04 Mar 10:30:27 10:31:47 12° 350° (N) 10:33:06 145.825
NANOSAT C BR1 04 Mar 10:33:00 10:37:03 40° 262° (W) 10:41:05 145.865
SO-50 04 Mar 10:33:57 10:38:31 37° 245° (WSW) 10:43:00 436.795
Oscar 11 04 Mar 10:43:53 10:46:39 16° 293° (WNW) 10:49:16 145.826/435.025
50 SAT 04 Mar 10:59:56 11:03:45 48° 286° (WNW) 11:07:34 437.505
CUBEBUG 2 04 Mar 11:03:12 11:05:14 13° 294° (WNW) 11:07:04 437.445
QB50P1 04 Mar 11:07:45 11:10:41 17° 268° (W) 11:13:27 145.935-145.965
BUGSAT 1 04 Mar 11:07:54 11:11:20 22° 266° (W) 11:14:40 437.445
DX 1 04 Mar 11:11:00 11:14:04 18° 293° (WNW) 11:16:59 434.975-435.025
QB50P2 04 Mar 11:12:39 11:15:15 15° 269° (W) 11:17:41 145.880/145.840
CUBEBUG 1 04 Mar 11:18:41 11:23:07 81° 284° (WNW) 11:27:29 437.445
AISAT 04 Mar 11:21:55 11:25:54 32° 290° (WNW) 11:29:48 437.250
HUMSAT D 04 Mar 11:22:41 11:25:48 21° 291° (WNW) 11:28:49 437.325/437.525
DANDE 04 Mar 11:22:44 11:24:37 17° 266° (W) 11:26:27 436.750
DUCHIFAT 1 04 Mar 11:27:37 11:28:52 11° 271° (W) 11:29:52 145.980
VELOX 1 04 Mar 11:30:43 11:34:30 27° 291° (WNW) 11:38:12 145.980
Oscar 19 04 Mar 11:34:39 11:38:53 27° 68° (ENE) 11:43:13 437.125/150
ITAMSAT 1 04 Mar 11:40:48 11:41:42 11° 60° (ENE) 11:42:56 435.822/435.867
TISAT 1 04 Mar 11:41:11 11:45:07 38° 97° (E) 11:49:03 437.305
SPROUT 04 Mar 11:43:43 11:47:52 46° 99° (E) 11:51:59 437.525
ESTCUBE 1 04 Mar 11:53:00 11:57:05 32° 290° (WNW) 12:01:07 437.505/2401.250
ISS 04 Mar 12:08:03 12:09:20 12° 10° (N) 12:10:39 145.825
SWISSCUBE 04 Mar 12:11:16 12:13:39 14° 89° (E) 12:16:17 437.505
BEESAT 04 Mar 12:19:13 12:22:00 16° 90° (E) 12:24:59 436.000
AO-7 04 Mar 12:33:25 12:35:36 12° 46° (NE) 12:38:18 29.400- 29.500
ITUPSAT 1 04 Mar 12:46:44 12:50:56 30° 96° (E) 12:55:10 437.325
Gurwin Techsat 1B 04 Mar 12:58:59 13:03:56 43° 71° (ENE) 13:08:58 435.225
HORYU 2 04 Mar 13:04:13 13:04:56 10° 63° (ENE) 13:05:54 437.375
Oscar 19 04 Mar 13:13:26 13:18:08 35° 263° (W) 13:22:48 437.125/150
ITAMSAT 1 04 Mar 13:15:15 13:20:28 82° 77° (ENE) 13:25:45 435.822/435.867
TISAT 1 04 Mar 13:17:47 13:20:41 18° 293° (WNW) 13:23:27 437.305
SPROUT 04 Mar 13:21:02 13:23:37 15° 294° (WNW) 13:26:03 437.525
KKS-1 04 Mar 13:36:24 13:39:24 18° 92° (E) 13:42:31 437.445
STARS 04 Mar 13:39:30 13:41:02 12° 89° (E) 13:42:50 437.465
ISS 04 Mar 13:43:34 13:46:32 33° 29° (NNE) 13:49:31 145.825
SWISSCUBE 04 Mar 13:47:14 13:51:59 59° 287° (WNW) 13:56:42 437.505
BEESAT 04 Mar 13:55:32 14:00:14 52° 287° (WNW) 14:04:53 436.000
AO-7 04 Mar 14:18:45 14:26:43 53° 66° (ENE) 14:34:45 29.400- 29.500
YUBILEINY 04 Mar 14:23:39 14:30:20 27° 83° (E) 14:37:21 435.215
ITUPSAT 1 04 Mar 14:24:38 14:28:47 28° 292° (WNW) 14:32:51 437.325
HORYU 2 04 Mar 14:36:38 14:41:03 77° 257° (WSW) 14:45:30 437.375
Gurwin Techsat 1B 04 Mar 14:39:55 14:44:08 23° 267° (W) 14:48:15 435.225
ITAMSAT 1 04 Mar 14:59:05 15:00:44 11° 273° (W) 15:02:02 435.822/435.867
VERMONT LUNAR 04 Mar 15:04:51 15:06:33 13° 146° (SSE) 15:08:21 437.305
JAS-2 04 Mar 15:05:06 15:10:28 56° 71° (ENE) 15:16:33 435.910
KKS-1 04 Mar 15:12:06 15:16:15 39° 289° (WNW) 15:20:21 437.445
STARS 04 Mar 15:13:39 15:17:58 58° 286° (WNW) 15:22:15 437.465
BEESAT 2 04 Mar 15:18:26 15:20:17 13° 110° (ESE) 15:22:21 435.950
ISS 04 Mar 15:20:06 15:22:54 27° 226° (SW) 15:25:41 145.825
M-CUBED/EXP-1 PRIME 04 Mar 15:21:42 15:24:00 14° 96° (E) 15:26:35 437.505
AUBIESAT-1 04 Mar 15:22:17 15:24:11 13° 96° (E) 15:26:22 437.475
AO-7 04 Mar 16:12:23 16:19:50 34° 264° (W) 16:27:09 29.400- 29.500
YUBILEINY 04 Mar 16:17:54 16:26:34 64° 282° (WNW) 16:35:18 435.215
BEESAT 3 04 Mar 16:26:01 16:30:07 88° 127° (SE) 16:34:17 437.485
MOZHAYETS 4 04 Mar 16:37:42 16:42:22 84° 103° (ESE) 16:47:01
VERMONT LUNAR 04 Mar 16:40:36 16:44:00 52° 161° (SSE) 16:47:25 437.305
JAS-2 04 Mar 16:52:17 16:56:16 19° 273° (W) 17:00:18 435.910
BEESAT 2 04 Mar 16:54:01 16:58:03 55° 305° (NW) 17:02:10 435.950
M-CUBED/EXP-1 PRIME 04 Mar 16:54:56 16:59:10 56° 290° (WNW) 17:03:42 437.505
AUBIESAT-1 04 Mar 16:55:04 16:59:21 62° 290° (WNW) 17:03:56 437.475
AIST 1 04 Mar 16:55:24 16:58:55 23° 73° (ENE) 17:02:29
Cubesat XI-IV 04 Mar 16:57:55 17:03:11 60° 73° (ENE) 17:08:30 437.490
PHONESAT 2.4 04 Mar 16:59:22 17:02:47 39° 157° (SSE) 17:06:13 2401.200-2431.200
AIST 2 04 Mar 17:02:54 17:07:07 69° 119° (ESE) 17:11:24 435.215
CUTE-I 04 Mar 17:06:11 17:11:31 70° 74° (ENE) 17:16:54 437.470
O/OREOS (USA 219) 04 Mar 17:07:21 17:09:38 14° 52° (NE) 17:12:05 437.305
CUBESAT XI-V 04 Mar 17:07:36 17:09:29 13° 88° (E) 17:11:39 437.345
STRAND 1 04 Mar 18:02:31 18:06:55 29° 95° (E) 18:11:23 437.568
BEESAT 3 04 Mar 18:07:11 18:08:52 12° 320° (NW) 18:10:24 437.485
MOZHAYETS 4 04 Mar 18:18:05 18:19:00 10° 297° (WNW) 18:19:39
VERMONT LUNAR 04 Mar 18:18:22 18:21:52 78° 357° (N) 18:25:22 437.305
YUBILEINY 04 Mar 18:22:36 18:25:43 12° 306° (NW) 18:28:09 435.215
GOMX 1 04 Mar 18:25:08 18:27:52 15° 65° (ENE) 18:30:45 467.674
BRITE-PL 04 Mar 18:29:33 18:33:57 25° 68° (ENE) 18:38:19 437.365/2234.400
PRISM 04 Mar 18:32:28 18:36:43 76° 283° (WNW) 18:40:55 437.425
AIST 1 04 Mar 18:32:48 18:36:36 28° 270° (W) 18:40:17
PHONESAT 2.4 04 Mar 18:37:28 18:41:08 85° 358° (N) 18:44:47 2401.200-2431.200
Cubesat XI-IV 04 Mar 18:40:17 18:43:46 17° 270° (W) 18:47:01 437.490
CUBESAT XI-V 04 Mar 18:42:47 18:47:28 62° 285° (WNW) 18:52:04 437.345
AIST 2 04 Mar 18:43:39 18:46:14 15° 318° (NW) 18:48:43 435.215
O/OREOS (USA 219) 04 Mar 18:45:03 18:49:37 66° 251° (WSW) 18:54:08 437.305
DOVE 4 04 Mar 18:49:15 18:52:19 17° 67° (ENE) 18:55:29 437.250
CUTE-I 04 Mar 18:49:21 18:52:14 14° 272° (W) 18:54:49 437.470
PCSat 04 Mar 18:51:16 18:55:30 24° 108° (ESE) 18:59:52 145.827
SEEDS 04 Mar 18:53:02 18:55:29 16° 67° (ENE) 18:58:08 437.485
CANX-2 04 Mar 18:58:50 19:02:10 24° 70° (ENE) 19:05:36 2200.000
HO-68 04 Mar 19:03:01 19:09:44 47° 67° (ENE) 19:16:33 435.675
CUTE 1.7 + AOD 2 04 Mar 19:16:36 19:20:22 34° 72° (ENE) 19:24:13 437.475
STRAND 1 04 Mar 19:41:33 19:46:09 33° 291° (WNW) 19:50:39 437.568
UWE-3 04 Mar 19:42:42 19:44:31 13° 66° (ENE) 19:46:30 435.000/436.395/437.385
AAUSAT CUBESAT 2 04 Mar 19:51:48 19:55:48 51° 74° (ENE) 19:59:52 437.432
COMPASS 1 04 Mar 19:56:04 20:00:11 68° 76° (ENE) 20:04:19 437.405
VERMONT LUNAR 04 Mar 19:56:20 19:59:49 75° 194° (SSW) 20:03:18 437.305
GOMX 1 04 Mar 20:00:10 20:05:34 72° 260° (W) 20:10:40 467.674
Oscar 11 04 Mar 20:00:56 20:04:42 31° 71° (ENE) 20:08:33 145.826/435.025
BRITE-PL 04 Mar 20:06:52 20:12:15 44° 262° (W) 20:17:24 437.365/2234.400
PHONESAT 2.4 04 Mar 20:16:00 20:19:39 89° 194° (SSW) 20:23:17 2401.200-2431.200
CINEMA 3 04 Mar 20:16:18 20:21:01 65° 75° (ENE) 20:25:33 145.822/145.860
CUBEBUG 2 04 Mar 20:22:22 20:26:33 41° 73° (ENE) 20:30:40 437.445
DOVE 4 04 Mar 20:24:42 20:29:45 57° 260° (W) 20:34:34 437.250
SEEDS 04 Mar 20:27:03 20:31:01 42° 262° (W) 20:35:01 437.485
DX 1 04 Mar 20:28:59 20:32:52 32° 70° (ENE) 20:36:49 434.975-435.025
GONETS M04 04 Mar 20:31:31 20:39:15 39° 87° (E) 20:47:08
PCSat 04 Mar 20:33:29 20:38:41 45° 305° (NW) 20:43:54 145.827
CANX-2 04 Mar 20:34:26 20:38:03 27° 265° (W) 20:41:37 2200.000
HUMSAT D 04 Mar 20:38:28 20:41:33 21° 69° (ENE) 20:44:43 437.325/437.525
AISAT 04 Mar 20:43:31 20:46:42 20° 67° (ENE) 20:50:02 437.250
DELFI C3 04 Mar 20:45:59 20:50:01 81° 78° (ENE) 20:54:04 145.870
FUNcube-1 04 Mar 20:49:54 20:54:09 54° 74° (ENE) 20:58:20 145.935
HO-68 04 Mar 20:51:23 20:57:41 32° 265° (W) 21:03:54 435.675
VELOX 1 04 Mar 20:51:36 20:55:05 23° 68° (ENE) 20:58:40 145.980
ZACube-1 04 Mar 20:51:58 20:56:15 58° 75° (ENE) 21:00:27 437.345
CUTE 1.7 + AOD 2 04 Mar 20:53:24 20:56:27 19° 268° (W) 20:59:23 437.475
UKube-1 04 Mar 20:55:11 20:59:27 60° 74° (ENE) 21:03:46 .
ESTCUBE 1 04 Mar 21:16:03 21:19:20 21° 67° (ENE) 21:22:44 437.505/2401.250
UWE-3 04 Mar 21:16:17 21:20:40 59° 260° (W) 21:24:57 435.000/436.395/437.385
UNISAT 6 04 Mar 21:25:46 21:28:18 16° 91° (E) 21:31:03 437.425
AAUSAT CUBESAT 2 04 Mar 21:30:07 21:31:51 12° 271° (W) 21:33:22 437.432
VERMONT LUNAR 04 Mar 21:34:38 21:37:26 22° 209° (SSW) 21:40:10 437.305
Oscar 11 04 Mar 21:37:38 21:40:58 21° 267° (W) 21:44:13 145.826/435.025
RS-15 04 Mar 21:41:17 21:51:06 42° 110° (ESE) 22:01:10 29.354- 29.394
50 SAT 04 Mar 21:45:29 21:49:28 87° 77° (ENE) 21:53:27 437.505
TIGRISAT 04 Mar 21:48:50 21:52:29 27° 96° (E) 21:56:15 435.000
PHONESAT 2.4 04 Mar 21:54:38 21:57:55 32° 206° (SSW) 22:01:10 2401.200-2431.200
CINEMA 3 04 Mar 21:56:46 21:58:41 12° 271° (W) 22:00:17 145.822/145.860
POPSAT HIP 1 04 Mar 21:57:22 22:00:16 19° 92° (E) 22:03:18 437.405
POLYITAN 1 04 Mar 21:57:59 22:00:59 19° 93° (E) 22:04:05 437.675
CUBEBUG 2 04 Mar 22:00:24 22:03:27 17° 268° (W) 22:06:18 437.445
ANTELSAT 04 Mar 22:03:26 22:07:31 41° 98° (E) 22:11:41 437.575/2403.000
DX 1 04 Mar 22:05:45 22:09:13 22° 266° (W) 22:12:35 434.975-435.025
HUMSAT D 04 Mar 22:13:27 22:17:12 30° 264° (W) 22:20:53 437.325/437.525
CUBEBUG 1 04 Mar 22:13:51 22:18:17 77° 76° (ENE) 22:22:45 437.445
AISAT 04 Mar 22:18:52 22:23:05 39° 262° (W) 22:27:18 437.250
NANOSAT C BR1 04 Mar 22:18:57 22:22:44 32° 97° (E) 22:26:33 145.865
VELOX 1 04 Mar 22:27:28 22:31:31 32° 264° (W) 22:35:33 145.980
GONETS M04 04 Mar 22:27:49 22:36:02 44° 287° (WNW) 22:44:12
FUNcube-1 04 Mar 22:28:57 22:30:53 12° 271° (W) 22:32:33 145.935
ZACube-1 04 Mar 22:31:29 22:33:03 11° 271° (W) 22:34:22 437.345
TISAT 1 04 Mar 22:33:05 22:36:40 27° 70° (ENE) 22:40:20 437.305
UKube-1 04 Mar 22:34:28 22:36:05 11° 271° (W) 22:37:26 .
SPROUT 04 Mar 22:37:19 22:41:11 33° 71° (ENE) 22:45:07 437.525
DANDE 04 Mar 22:48:49 22:54:45 36° 96° (E) 22:59:28 436.750
BUGSAT 1 04 Mar 22:50:12 22:54:17 55° 100° (E) 22:58:18 437.445
ESTCUBE 1 04 Mar 22:51:46 22:55:59 37° 263° (W) 23:00:13 437.505/2401.250
QB50P1 04 Mar 22:52:07 22:56:21 82° 101° (E) 23:00:34 145.935-145.965
QB50P2 04 Mar 22:56:49 23:01:04 86° 285° (WNW) 23:05:17 145.880/145.840
UNISAT 6 04 Mar 23:01:17 23:05:22 42° 288° (WNW) 23:09:29 437.425
CUSAT 1 04 Mar 23:04:33 23:10:38 59° 98° (E) 23:15:11 437.405
DUCHIFAT 1 04 Mar 23:09:50 23:14:01 63° 285° (WNW) 23:18:09 145.980
SWISSCUBE 04 Mar 23:17:29 23:20:17 16° 65° (ENE) 23:23:17 437.505
BEESAT 04 Mar 23:25:21 23:28:25 18° 65° (ENE) 23:31:40 436.000
TIGRISAT 04 Mar 23:25:40 23:29:12 24° 290° (WNW) 23:32:40 435.000
POPSAT HIP 1 04 Mar 23:32:28 23:36:19 34° 289° (WNW) 23:40:07 437.405
POLYITAN 1 04 Mar 23:33:13 23:37:03 33° 289° (WNW) 23:40:48 437.675
ANTELSAT 04 Mar 23:41:11 23:44:05 17° 293° (WNW) 23:46:49 437.575/2403.000
RS-15 04 Mar 23:52:33 00:03:13 56° 311° (NW) 00:14:03 29.354- 29.394
ITUPSAT 1 04 Mar 23:52:59 23:57:11 32° 69° (ENE) 00:01:28 437.325
NANOSAT C BR1 04 Mar 23:55:17 23:58:27 20° 292° (WNW) 00:01:29 145.865
TISAT 1 05 Mar 00:08:54 00:12:28 25° 265° (W) 00:15:58 437.305
SPROUT 05 Mar 00:14:04 00:17:23 21° 267° (W) 00:20:36 437.525
BUGSAT 1 05 Mar 00:27:33 00:29:21 12° 295° (WNW) 00:30:57 437.445
DANDE 05 Mar 00:32:28 00:38:04 29° 284° (WNW) 00:42:24 436.750
KKS-1 05 Mar 00:34:35 00:37:18 17° 66° (ENE) 00:40:11 437.445
YUBILEINY 05 Mar 00:35:59 00:38:31 12° 54° (NE) 00:41:46 435.215
STARS 05 Mar 00:37:01 00:38:07 11° 63° (ENE) 00:39:26 437.465
BEESAT 3 05 Mar 00:46:06 00:50:02 41° 53° (NE) 00:53:55 437.485
SO-50 05 Mar 00:47:11 00:51:46 88° 131° (SE) 00:56:33 436.795
CUSAT 1 05 Mar 00:50:10 00:53:30 15° 287° (WNW) 00:56:11 437.405
SWISSCUBE 05 Mar 00:53:03 00:57:45 56° 260° (W) 01:02:29 437.505
BEESAT 05 Mar 01:01:18 01:05:56 50° 261° (W) 01:10:36 436.000
BEESAT 2 05 Mar 01:14:18 01:18:28 71° 57° (ENE) 01:22:33 435.950
Gurwin Techsat 1B 05 Mar 01:16:52 01:20:20 18° 90° (E) 01:23:59 435.225
Oscar 19 05 Mar 01:25:05 01:30:16 87° 108° (ESE) 01:35:24 437.125/150
AIST 2 05 Mar 01:25:41 01:29:39 36° 51° (NE) 01:33:33 435.215
ITAMSAT 1 05 Mar 01:29:21 01:33:55 31° 95° (E) 01:38:32 435.822/435.867
ITUPSAT 1 05 Mar 01:31:07 01:35:08 26° 266° (W) 01:39:05 437.325
KKS-1 05 Mar 02:09:18 02:13:38 47° 261° (W) 02:17:57 437.445
STARS 05 Mar 02:09:38 02:14:04 73° 258° (WSW) 02:18:30 437.465
RS-15 05 Mar 02:10:53 02:18:57 22° 342° (NNW) 02:26:59 29.354- 29.394
M-CUBED/EXP-1 PRIME 05 Mar 02:11:37 02:12:55 12° 61° (ENE) 02:14:23 437.505
AUBIESAT-1 05 Mar 02:12:00 02:12:44 11° 60° (ENE) 02:13:37 437.475
AO-7 05 Mar 02:23:16 02:27:35 16° 87° (E) 02:32:29 29.400- 29.500
BEESAT 3 05 Mar 02:25:03 02:27:50 17° 249° (WSW) 02:30:28 437.485
YUBILEINY 05 Mar 02:28:53 02:37:40 64° 78° (ENE) 02:46:25 435.215
HORYU 2 05 Mar 02:29:29 02:32:51 21° 93° (E) 02:36:20 437.375
SO-50 05 Mar 02:30:23 02:33:05 15° 322° (NW) 02:35:41 436.795
Gurwin Techsat 1B 05 Mar 02:55:31 03:00:43 55° 288° (WNW) 03:05:53 435.225
AIST 2 05 Mar 03:04:46 03:08:04 21° 248° (WSW) 03:11:12 435.215
Oscar 19 05 Mar 03:07:02 03:08:58 12° 299° (WNW) 03:10:37 437.125/150
ITAMSAT 1 05 Mar 03:08:49 03:13:25 31° 292° (WNW) 03:17:55 435.822/435.867
MOZHAYETS 4 05 Mar 03:38:48 03:43:20 71° 76° (ENE) 03:47:54
PCSat 05 Mar 03:39:25 03:43:18 20° 45° (NE) 03:47:17 145.827
AUBIESAT-1 05 Mar 03:44:04 03:47:14 43° 256° (WSW) 03:50:33 437.475
M-CUBED/EXP-1 PRIME 05 Mar 03:44:28 03:47:34 37° 257° (WSW) 03:50:48 437.505
JAS-2 05 Mar 03:58:17 04:05:47 61° 100° (E) 04:13:35 435.910
HORYU 2 05 Mar 04:05:35 04:09:37 33° 289° (WNW) 04:13:36 437.375
CUBESAT XI-V 05 Mar 04:11:04 04:12:55 13° 64° (ENE) 04:15:01 437.345
AO-7 05 Mar 04:13:22 04:21:44 85° 108° (ESE) 04:30:02 29.400- 29.500
YUBILEINY 05 Mar 04:26:49 04:33:55 27° 276° (W) 04:40:41 435.215
